Location: Bouillancy
(49.1149°N, 2.9308°E)
Time: 08:37:46
(UTC+00:00)

CSL-04 Debris - Pass Details

Date: 30 September 2020
Orbit: 827 x 847 km, 98.9° (Epoch: 29 October)

Event Time Altitude Azimuth Distance (km) Brightness Sun altitude
Rises 18:29:34 0° 161° (SSE) 3,355 7.0 -10.8°
Reaches altitude 10° 18:31:54 10° 161° (SSE) 2,426 6.3 -11.2°
Maximum altitude 18:37:17 85° 73° (ENE) 839 4.1 -12.1°
Drops below altitude 10° 18:42:43 10° 346° (NNW) 2,449 6.9 -13.0°
Sets 18:45:05 0° 346° (NNW) 3,390 7.7 -13.3°
